St. Kitts, Saint Kitts and Nevis

12:24 PM AST on October 20, 2017 (GMT -0400)
St. Kitts

Weather History for TKPK - April, 2014

Change the Weather History Date:

Monday, April 7, 2014

  Actual Average Record
Temperature  
Mean Temperature 79 °F -  
Max Temperature 84 °F 83 °F 87 °F (1998)
Min Temperature 74 °F 74 °F 71 °F (1997)
Cooling Degree Days 14    
Growing Degree Days 29 (Base 50)    
Moisture  
Dew Point 71 °F    
Average Humidity 72    
Maximum Humidity 94    
Minimum Humidity 57    
Precipitation  
Precipitation 0.00 in - - ()
Sea Level Pressure  
Sea Level Pressure 30.06 in    
Wind  
Wind Speed 13 mph ()    
Max Wind Speed 20 mph    
Max Gust Speed 23 mph    
Visibility 9.0 miles    
Events Rain    
Averages and records for this station are not official NWS values.
T = Trace of Precipitation, MM = Missing Value Source: Averaged Metar Reports

Daily Weather History Graph

Daily Weather History Graph

Search for Another Location

Airport or City:

Trip Planner

Search our weather history database for the weather conditions in past years. The results will help you decide how hot, cold, wet, or windy it might be!

Date:

Astronomy

Apr. 07, 2014 Rise Set
Actual Time 6:00 AM AST 6:25 PM AST
Civil Twilight 5:38 AM AST 6:46 PM AST
Nautical Twilight 5:13 AM AST 7:12 PM AST
Astronomical Twilight 4:47 AM AST 7:38 PM AST
Moon 12:14 PM AST (4/7) 12:35 AM AST (4/7)
Length of Visible Light 13h 08m
Length of Day
12h 24m
First Quarter, 53% of the Moon is Illuminated
Apr 7
First Quarter
Apr 15
Full
Apr 22
Last Quarter
Apr 29
New
May 6
First Quarter

Hourly Weather History & Observations

Time (AST) Temp. Heat Index Dew Point Humidity Pressure Visibility Wind Dir Wind Speed Gust Speed Precip Events Conditions
6:00 AM 75.2 °F - 73.4 °F 94% 30.04 in 6.2 mi ENE 4.6 mph - N/A Rain Rain Showers
7:00 AM 77.0 °F - 73.4 °F 89% 30.04 in 6.2 mi NE 12.7 mph - N/A   Mostly Cloudy
8:00 AM 79 °F - 71 °F 70% 30.09 in 16 mi East 18.4 mph - - Rain Light Rain Showers
8:00 AM 78.8 °F - 71.6 °F 78% 30.06 in 6.2 mi East 18.4 mph - N/A   Scattered Clouds
9:00 AM 80.6 °F 84.6 °F 71.6 °F 74% 30.09 in 6.2 mi ENE 16.1 mph - N/A   Scattered Clouds
10:00 AM 82.4 °F 87.2 °F 71.6 °F 70% 30.09 in 6.2 mi ENE 17.3 mph 23.0 mph N/A   Scattered Clouds
11:00 AM 83 °F - 71 °F 59% 30.11 in 17 mi East 19.6 mph - -   Partly Cloudy
11:00 AM 82.4 °F 87.2 °F 71.6 °F 70% 30.09 in 6.2 mi East 19.6 mph - N/A   Scattered Clouds
12:00 PM 82.4 °F 87.2 °F 71.6 °F 70% 30.09 in 6.2 mi East 16.1 mph - N/A   Scattered Clouds
1:00 PM 82.4 °F 86.3 °F 69.8 °F 66% 30.06 in 6.2 mi ENE 16.1 mph - N/A   Scattered Clouds
2:00 PM 83 °F - 70 °F 57% 30.06 in 17 mi ENE 16.1 mph - -   Partly Cloudy
2:00 PM 82.4 °F 86.3 °F 69.8 °F 66% 30.04 in 6.2 mi ENE 16.1 mph - N/A   Scattered Clouds
3:00 PM 82.4 °F 86.3 °F 69.8 °F 66% 30.04 in 6.2 mi East 18.4 mph - N/A   Scattered Clouds
4:00 PM 80.6 °F 83.9 °F 69.8 °F 70% 30.04 in 6.2 mi ENE 13.8 mph - N/A   Partly Cloudy
5:00 PM 80 °F - 69 °F 63% 30.05 in 17 mi ENE 13.8 mph - -   Mostly Cloudy
5:00 PM 80.6 °F 83.9 °F 69.8 °F 70% 30.04 in 6.2 mi ENE 13.8 mph - N/A   Scattered Clouds
6:00 PM 78.8 °F - 69.8 °F 74% 30.04 in 6.2 mi NE 15.0 mph - N/A   Scattered Clouds
7:00 PM 78.8 °F - 71.6 °F 78% 30.04 in 6.2 mi ENE 15.0 mph - N/A   Partly Cloudy
8:00 PM 78 °F - 71 °F 74% 30.08 in 19 mi ENE 13.8 mph - -   Partly Cloudy
8:00 PM 77.0 °F - 71.6 °F 83% 30.06 in 6.2 mi ENE 13.8 mph - N/A   Scattered Clouds